This demonstration page uses our WeatherBlox Daily Observations layout. Learn more.

Left ArrowRight Arrow

39.08367, -84.50855

Hourly Observations for July 2, 2015

Temp ( °F °C ) Dew Point ( °F °C ) Humidity (%) Winds ( mph kmh ) Pressure ( in mb ) Visibility ( mi km ) Precip ( " mm )
12:53 am 00:53 Mostly Clear 66 18.9 65 18.3 96 96 Calm 29.92 1013 8 13 0.00 0.00
1:53 am 01:53 Mostly Cloudy 66 18.9 65 18.3 96 96 Calm 29.91 1013 7 11 0.00 0.00
2:53 am 02:53 Cloudy with Mist and Fog 66 18.9 65 18.3 96 96 Calm 29.90 1013 6 10 0.00 0.00
3:53 am 03:53 Cloudy with Mist and Fog 66 18.9 66 18.9 100 100 Calm 29.88 1012 6 10 0.00 0.00
4:53 am 04:53 Cloudy 67 19.4 66 18.9 97 97 Calm 29.87 1012 7 11 0.00 0.00
5:53 am 05:53 Cloudy with Mist and Fog 67 19.4 66 18.9 97 97 ENE 3 6 29.88 1012 6 10 0.00 0.00
6:53 am 06:53 Partly Cloudy with Mist and Fog 67 19.4 66 18.9 97 97 Calm 29.88 1012 5 8 0.00 0.00
7:31 am 07:31 Mostly Cloudy with Mist and Fog 67 19.4 66 18.9 97 97 Calm 29.88 1012 5 8 0.00 0.00
7:53 am 07:53 Mostly Cloudy with Mist and Fog 68 20 67 19.4 96 96 Calm 29.88 1012 5 8 0.00 0.00
8:21 am 08:21 Mostly Cloudy with Mist and Fog 69 20.6 67 19.4 93 93 Calm 29.88 1012 5 8 0.00 0.00
8:34 am 08:34 Mostly Cloudy with Mist and Fog 70 21 66 19 88 88 Calm 29.91 1013 5 8 0.00 0.00
8:53 am 08:53 Cloudy with Mist and Fog 69 20.6 67 19.4 93 93 Calm 29.88 1012 5 8 0.00 0.00
9:53 am 09:53 Cloudy with Mist and Fog 70 21.1 68 20 93 93 Calm 29.90 1012 6 10 0.00 0.00
10:53 am 10:53 Cloudy with Mist and Fog 71 21.7 68 20 90 90 Calm 29.90 1013 6 10 0.00 0.00
11:05 am 11:05 Cloudy with Light Rain 71 21.7 68 20 90 90 NNE 3 6 29.91 1013 6 10 0.00 0.03
11:48 am 11:48 Cloudy with Mist and Fog 72 22 70 21 94 94 Calm 29.91 1013 6 10 0.00 0.00
11:53 am 11:53 Cloudy with Mist and Fog 71 21.7 69 20.6 94 94 Calm 29.90 1012 6 10 0.01 0.25
12:13 pm 12:13 Mostly Cloudy with Mist and Fog 71 21.7 69 20.6 94 94 NE 3 6 29.91 1013 5 8 0.00 0.00
12:25 pm 12:25 Mostly Cloudy with Mist and Fog 72 22.2 69 20.6 91 91 ENE 3 6 29.91 1013 5 8 0.00 0.00
12:53 pm 12:53 Mostly Cloudy with Mist and Fog 74 23.3 70 21.1 88 88 NNE 6 9 29.89 1012 6 10 0.00 0.00
1:05 pm 13:05 Cloudy with Mist and Fog 74 23.3 71 21.7 91 91 NNE 9 15 29.91 1013 6 10 0.00 0.00
1:12 pm 13:12 Cloudy with Mist and Fog 73 23 70 21 89 89 ENE 10 17 29.91 1013 6 10 0.00 0.00
1:27 pm 13:27 Cloudy 73 22.8 69 20.6 87 87 NE 8 13 29.91 1013 8 13 0.00 0.00
1:53 pm 13:53 Mostly Cloudy 74 23.3 69 20.6 85 85 E 6 9 29.88 1012 10 16 0.00 0.00
2:42 pm 14:42 Mostly Cloudy 75 24 68 20 78 78 ENE 7 11 29.88 1012 8 13 0.00 0.00
2:53 pm 14:53 Mostly Cloudy 75 23.9 69 20.6 82 82 ENE 8 13 29.88 1012 7 11 0.00 0.00
3:10 pm 15:10 Mostly Cloudy 75 24 70 21 83 83 ENE 7 11 29.88 1012 7 11 0.00 0.00
3:53 pm 15:53 Partly Cloudy 78 25.6 69 20.6 74 74 NNE 9 15 29.86 1011 8 13 0.00 0.00
4:15 pm 16:15 Mostly Cloudy 76 24.4 68 20 77 77 NE 6 9 29.88 1012 8 13 0.00 0.00
4:25 pm 16:25 Cloudy 76 24.4 68 20 77 77 ENE 7 11 29.88 1012 8 13 0.00 0.00
4:53 pm 16:53 Partly Cloudy 76 24.4 68 20 77 77 ENE 8 13 29.85 1011 8 13 0.00 0.00
5:53 pm 17:53 Cloudy 76 24.4 67 19.4 74 74 ENE 6 9 29.86 1011 10 16 0.00 0.00
6:53 pm 18:53 Cloudy with Light Rain 72 22.2 70 21.1 94 94 SSE 5 7 29.87 1011 7 11 0.02 0.51
7:53 pm 19:53 Cloudy with Light Rain 70 21.1 68 20 93 93 VRB 3 6 29.88 1012 6 10 0.01 0.25
8:53 pm 20:53 Cloudy 71 21.7 68 20 90 90 Calm 29.87 1012 9 14 0.02 0.51
9:53 pm 21:53 Cloudy with Mist and Fog 69 20.6 69 20.6 100 100 Calm 29.89 1012 5 8 0.00 0.00
10:53 pm 22:53 Cloudy with Mist and Fog 69 20.6 69 20.6 100 100 Calm 29.91 1013 4 6 0.00 0.00
11:07 pm 23:07 Cloudy with Mist and Fog 68 20 68 20 100 100 Calm 29.91 1013 4 6 0.00 0.00
11:21 pm 23:21 Mostly Cloudy with Mist and Fog 69 20.6 69 20.6 100 100 Calm 29.91 1013 4 6 0.00 0.00
11:53 pm 23:53 Cloudy with Mist and Fog 69 20.6 69 20.6 100 100 NNE 3 6 29.90 1012 5 8 0.00 0.00

Powered by AerisWeather